User: anonymous   Login
Location: Unspecified
(0.0000°N, 0.0000°E)
Time: 02:28:57
(UTC+00:00)
Language:

Cosmos 1674 - Orbit

View from above orbital plane
View from above orbital plane
View from above satellite
View from above satellite

Ground track
Ground track

The orbit data is extracted from the following two-line orbital elements,

1 15944U 85069A   18020.95606648 +.00000623 +00000-0 +28193-4 0  9994
2 15944 082.5078 013.5024 0019092 094.8467 265.4948 15.18785792770790
Epoch (UTC): 20 January 2018 22:56:44
Eccentricity: 0.0019092
inclination: 82.5078°
perigee height: 496 km
apogee height: 522 km
right ascension of ascending node: 13.5024°
argument of perigee: 94.8467°
revolutions per day: 15.18785792
mean anomaly at epoch: 265.4948°
orbit number at epoch: 77079

The dashed part of the orbit path shows where the satellite is in the earth's shadow,  

DLR